Location: Charbonni�res
(45.9952°N, 2.9982°E)
Time: 17:22:04
(UTC+00:00)

Milstar 3 Cent rocket - Visible Passes

Search period start: 16 April 2021 00:00
Search period end: 26 April 2021 00:00
Orbit: 705 x 5148 km, 28.3° (Epoch: 16 April)

Date Brightness Start Highest point End Pass type
(mag) Time Alt. Az. Time Alt. Az. Time Alt. Az.
16 Apr 6.5 00:56:42 10° WSW 01:00:36 12° WSW 01:00:36 12° WSW visible
16 Apr 5.9 20:03:37 10° W 20:33:19 49° SSW 20:51:01 25° SE visible
16 Apr 6.0 22:53:11 10° W 23:16:44 29° SW 23:19:50 28° SSW visible
17 Apr 6.4 18:12:39 10° WSW 18:39:46 53° S 19:08:26 10° ESE visible
17 Apr 5.9 20:57:20 10° W 21:26:13 43° SSW 21:39:03 30° SSE visible
17 Apr 6.3 23:50:55 10° W 00:07:42 19° SW 00:07:51 19° SW visible
18 Apr 6.2 19:05:03 10° WSW 19:33:20 52° S 19:58:16 15° SE visible
18 Apr 6.0 21:51:54 10° W 22:18:28 35° SW 22:27:04 30° S visible
19 Apr 6.1 19:58:04 10° W 20:26:39 47° SSW 20:46:17 22° SE visible
19 Apr 6.2 22:47:56 10° W 23:10:02 25° SW 23:15:06 24° SSW visible
20 Apr 6.1 20:51:47 10° W 21:19:29 40° SSW 21:34:19 26° SSE visible
20 Apr 6.5 23:47:27 10° W 00:01:01 15° SW 00:03:08 15° SW visible
21 Apr 6.3 18:59:47 10° WSW 19:26:42 50° SSW 19:53:33 12° SE visible
21 Apr 6.2 21:46:35 10° W 22:11:40 31° SW 22:22:21 25° S visible
22 Apr 6.2 19:52:47 10° W 20:19:56 44° SSW 20:41:35 18° SSE visible
22 Apr 6.4 22:43:27 10° W 23:03:13 21° SW 23:10:24 19° SSW visible
23 Apr 6.2 20:46:36 10° W 21:12:40 36° SSW 21:29:40 21° S visible
23 Apr 6.7 23:47:10 10° WSW 23:54:17 11° SW 23:58:29 11° SW visible
24 Apr 6.5 18:54:47 10° W 19:20:06 47° SSW 19:48:39 10° SE visible
24 Apr 6.4 21:41:49 10° W 22:04:48 26° SW 22:17:44 19° S visible
25 Apr 6.4 19:47:48 10° W 20:13:12 40° SSW 20:37:01 14° SSE visible
25 Apr 6.6 22:40:10 10° W 22:56:24 17° SW 23:05:49 14° SSW visible
